EW4052 Weather Reports


time (UTC)temp
F
wind
direction
speed
knots
gust
knots
rain 1hr
in
rain 24hr
in
rain mn
in
humidity
%
barometer
mb
20260509021532 64 277 0.0 0.0 0.00 0.00 0.00 45 1002.2
20260509020036 65 277 1.7 4.3 0.00 0.00 0.00 43 1002.0
20260509014534 66 275 4.3 8.7 0.00 0.00 0.00 40 1001.9
20260509013030 67 273 3.5 8.7 0.00 0.00 0.00 38 1001.7
20260509011530 68 290 6.1 16.5 0.00 0.00 0.00 36 1001.6
20260509010028 69 243 5.2 9.6 0.00 0.00 0.00 39 1001.4
20260509004537 70 230 6.1 14.8 0.00 0.00 0.00 31 1001.4
20260509003027 70 244 9.6 13.9 0.00 0.00 0.00 34 1001.5
20260509001526 71 216 4.3 10.4 0.00 0.00 0.00 27 1001.3
20260509000024 72 234 7.0 16.5 0.00 0.00 0.00 26 1001.5
20260508234524 72 219 11.3 15.6 0.00 0.00 0.00 28 1001.6
20260508233023 73 213 8.7 17.4 0.00 0.00 0.00 24 1001.6
20260508231520 73 237 7.8 14.8 0.00 0.00 0.00 29 1001.6
20260508230018 72 226 3.5 14.8 0.00 0.00 0.00 26 1001.8
20260508224521 72 232 6.1 12.2 0.00 0.00 0.00 32 1001.9
20260508223033 72 223 6.1 15.6 0.00 0.00 0.00 25 1002.1
20260508221514 71 240 7.0 16.5 0.00 0.00 0.00 33 1002.2
20260508220012 71 239 5.2 12.2 0.00 0.00 0.00 26 1002.4
20260508214510 71 252 7.0 17.4 0.00 0.00 0.00 30 1002.5
20260508213008 72 244 7.8 15.6 0.00 0.00 0.00 23 1002.6
20260508211507 71 223 8.7 19.1 0.00 0.00 0.00 26 1002.9
20260508210005 72 255 7.8 17.4 0.00 0.00 0.00 27 1003.0
20260508204504 72 242 4.3 19.1 0.00 0.00 0.00 26 1003.3
20260508203119 71 236 6.1 15.6 0.00 0.00 0.00 25 1003.5
20260508201558 72 261 11.3 19.1 0.00 0.00 0.00 30 1003.8
20260508194555 71 223 6.1 14.8 0.00 0.00 0.00 23 1004.3
20260508193114 71 212 7.8 17.4 0.00 0.00 0.00 25 1004.5
20260508191551 72 240 5.2 15.6 0.00 0.00 0.00 26 1004.8
20260508190045 70 267 1.7 9.6 0.00 0.00 0.00 30 1004.8
20260508184544 70 234 8.7 18.2 0.00 0.00 0.00 24 1005.3
20260508183042 69 221 3.5 14.8 0.00 0.00 0.00 24 1005.4
20260508181543 69 240 2.6 12.2 0.00 0.00 0.00 27 1005.7
20260508180038 69 243 5.2 14.8 0.00 0.00 0.00 25 1005.9
20260508174538 68 251 9.6 15.6 0.00 0.00 0.00 30 1006.1
20260508173032 68 250 8.7 14.8 0.00 0.00 0.00 25 1006.5
20260508171536 68 242 6.1 10.4 0.00 0.00 0.00 27 1006.7
20260508170028 68 229 7.8 14.8 0.00 0.00 0.00 22 1007.0
20260508164524 66 235 5.2 9.6 0.00 0.00 0.00 27 1007.1
20260508163021 65 240 6.1 11.3 0.00 0.00 0.00 27 1007.3
20260508161523 65 244 6.1 13.0 0.00 0.00 0.00 27 1007.6
20260508160017 64 241 6.1 12.2 0.00 0.00 0.00 29 1007.8
20260508154515 65 233 6.1 9.6 0.00 0.00 0.00 30 1007.9
20260508153012 63 230 2.6 12.2 0.00 0.00 0.00 30 1008.1
20260508151510 63 232 4.3 8.7 0.00 0.00 0.00 32 1008.3
20260508150010 61 232 0.0 5.2 0.00 0.00 0.00 35 1008.4
20260508144600 59 173 0.9 6.1 0.00 0.00 0.00 36 1008.5
20260508143107 57 203 0.0 6.1 0.00 0.00 0.00 36 1008.7
20260508141552 55 224 0.0 6.1 0.00 0.00 0.00 40 1009.1
20260508140049 53 224 0.0 4.3 0.00 0.00 0.00 43 1009.0
20260508134545 52 219 0.0 3.5 0.00 0.00 0.00 44 1009.1
20260508133042 51 215 0.0 3.5 0.00 0.00 0.00 42 1009.2
20260508131541 50 212 0.0 2.6 0.00 0.00 0.00 47 1009.3
20260508130034 48 298 0.0 0.0 0.00 0.00 0.00 52 1009.2
20260508124530 47 300 0.0 0.0 0.00 0.00 0.00 52 1009.3
20260508123029 46 300 0.0 0.0 0.00 0.00 0.00 54 1009.2
20260508121526 44 300 0.0 0.0 0.00 0.00 0.00 57 1009.0
20260508120033 42 300 0.0 0.0 0.00 0.00 0.00 56 1009.0
20260508114524 40 300 0.0 0.0 0.00 0.00 0.00 58 1008.9
20260508113023 41 300 0.0 0.0 0.00 0.00 0.00 57 1008.9
20260508111528 40 300 0.0 0.0 0.00 0.00 0.00 58 1008.8
20260508110022 41 300 0.0 0.0 0.00 0.00 0.00 56 1008.7
20260508104521 41 300 0.0 0.0 0.00 0.00 0.00 54 1008.7
20260508103025 40 300 0.0 0.0 0.00 0.00 0.00 56 1008.7
20260508101518 40 300 0.0 0.0 0.00 0.00 0.00 56 1008.9
20260508100017 40 300 0.0 0.0 0.00 0.00 0.00 56 1009.0
20260508094516 41 300 0.0 0.0 0.00 0.00 0.00 56 1009.1
20260508093015 40 300 0.0 0.0 0.00 0.00 0.00 57 1009.1
20260508091514 40 300 0.0 0.0 0.00 0.00 0.00 55 1009.0
20260508090012 41 300 0.0 0.0 0.00 0.00 0.00 53 1009.1
20260508084509 41 300 0.0 0.0 0.00 0.00 0.00 54 1009.2
20260508083007 41 300 0.0 0.0 0.00 0.00 0.00 53 1009.3
20260508081504 42 300 0.0 0.0 0.00 0.00 0.00 51 1009.5
20260508080004 43 300 0.0 0.0 0.00 0.00 0.00 50 1009.5
20260508074605 44 300 0.0 0.0 0.00 0.00 0.00 48 1009.6
20260508073058 44 300 0.0 0.0 0.00 0.00 0.00 48 1009.7
20260508071557 44 300 0.0 0.0 0.00 0.00 0.00 47 1009.8
20260508070056 45 300 0.0 0.0 0.00 0.00 0.00 47 1009.8
20260508064555 45 300 0.0 0.0 0.00 0.00 0.00 48 1009.9
20260508063059 45 300 0.0 0.0 0.00 0.00 0.00 49 1009.9
20260508061556 44 300 0.0 0.0 0.00 0.00 0.00 50 1010.0
20260508060051 44 300 0.0 0.0 0.00 0.00 0.00 51 1010.1
20260508054549 44 300 0.0 0.0 0.00 0.00 0.00 56 1010.1
20260508053056 44 300 0.0 0.0 0.00 0.00 0.00 55 1010.0
20260508051548 45 300 0.0 0.0 0.00 0.00 0.00 51 1010.0
20260508050042 46 300 0.0 0.0 0.00 0.00 0.00 52 1010.0
20260508044542 48 300 0.0 0.0 0.00 0.00 0.00 47 1009.9
20260508043049 47 300 0.0 0.0 0.00 0.00 0.00 44 1010.0
20260508041542 48 300 0.0 0.0 0.00 0.00 0.00 46 1010.0
20260508040040 48 300 0.0 0.0 0.00 0.00 0.00 48 1010.0
20260508034547 48 300 0.0 0.0 0.00 0.00 0.00 49 1010.1
20260508033039 49 300 0.0 0.0 0.00 0.00 0.00 49 1010.0
20260508031539 49 300 0.0 0.0 0.00 0.00 0.00 49 1010.0
20260508030039 50 300 0.0 0.0 0.00 0.00 0.00 52 1010.1
20260508024538 51 300 0.0 0.0 0.00 0.00 0.00 44 1010.0
20260508023037 51 300 0.0 0.0 0.00 0.00 0.00 49 1009.8